Location: Banff
(51.1667°N, 115.5667°W)
Time: 13:07:29
(UTC+00:00)

Tiros 1 - Pass Details

Date: 03 August 2021
Orbit: 630 x 663 km, 48.4° (Epoch: 27 September)

Event Time Altitude Azimuth Distance (km) Brightness Sun altitude
Rises 04:19:06 0° 268° (W) 2,979 11.4 -7.6°
Reaches altitude 10° 04:21:28 10° 265° (W) 2,062 10.4 -7.9°
Maximum altitude 04:26:10 61° 186° (S) 735 7.3 -8.4°
Drops below altitude 10° 04:30:48 10° 106° (ESE) 2,039 9.2 -8.9°
Enters shadow 04:31:04 - 106° (ESE) 2,145 9.3 -9.0°
